Abilene Dyess, TX

9:44 PM CDT on August 16, 2017 (GMT -0500)
Dyess Air Force Base

Weather History for KDYS - April, 2013

Change the Weather History Date:

Monday, April 22, 2013

  Actual Average Record
Temperature  
Mean Temperature 72 °F -  
Max Temperature 86 °F 76 °F 100 °F (1999)
Min Temperature 57 °F 53 °F 46 °F (1998)
Cooling Degree Days 6    
Growing Degree Days 22 (Base 50)    
Moisture  
Dew Point 54 °F    
Average Humidity 60    
Maximum Humidity 82    
Minimum Humidity 28    
Precipitation  
Precipitation 0.00 in - - ()
Sea Level Pressure  
Sea Level Pressure 29.83 in    
Wind  
Wind Speed 20 mph (South)    
Max Wind Speed 24 mph    
Max Gust Speed 37 mph    
Visibility 10 miles    
Events      
Averages and records for this station are not official NWS values.
T = Trace of Precipitation, MM = Missing Value Source: NWS Daily Summary

Daily Weather History Graph

Daily Weather History Graph

Search for Another Location

Airport or City:

Trip Planner

Search our weather history database for the weather conditions in past years. The results will help you decide how hot, cold, wet, or windy it might be!

Date:

Astronomy

Apr. 22, 2013 Rise Set
Actual Time 7:01 AM CDT 8:14 PM CDT
Civil Twilight 6:36 AM CDT 8:39 PM CDT
Nautical Twilight 6:05 AM CDT 9:10 PM CDT
Astronomical Twilight 5:34 AM CDT 9:42 PM CDT
Moon 5:14 PM CDT (4/22) 4:46 AM CDT (4/22)
Length of Visible Light 14h 03m
Length of Day
13h 12m
Waxing Gibbous, 88% of the Moon is Illuminated
Apr 22
Waxing Gibbous
Apr 25
Full
May 2
Last Quarter
May 9
New
May 17
First Quarter

Hourly Weather History & Observations

Time (CDT) Temp. Heat Index Dew Point Humidity Pressure Visibility Wind Dir Wind Speed Gust Speed Precip Events Conditions
12:58 AM 61.7 °F - 50.4 °F 66% 29.96 in 10.0 mi SE 18.4 mph - N/A   Clear
1:58 AM 61.0 °F - 50.4 °F 68% 29.93 in 10.0 mi SSE 17.3 mph - N/A   Clear
2:58 AM 59.9 °F - 50.9 °F 72% 29.91 in 10.0 mi SSE 19.6 mph 29.9 mph N/A   Clear
3:58 AM 58.6 °F - 51.8 °F 78% 29.88 in 10.0 mi SSE 18.4 mph 24.2 mph N/A   Clear
4:58 AM 57.9 °F - 52.5 °F 82% 29.88 in 10.0 mi SSE 19.6 mph 28.8 mph N/A   Clear
5:28 AM 59.0 °F - 53.6 °F 82% 29.97 in 10.0 mi SSE 17.3 mph 26.5 mph N/A   Mostly Cloudy
5:55 AM 60.1 °F - 54.5 °F 82% 29.92 in 10.0 mi South 19.6 mph 27.6 mph N/A   Overcast
5:58 AM 60.1 °F - 54.5 °F 82% 29.87 in 10.0 mi South 20.7 mph 27.6 mph N/A   Overcast
6:31 AM 60.8 °F - 55.4 °F 82% 29.96 in 10.0 mi South 20.7 mph 27.6 mph N/A   Overcast
6:55 AM 60.8 °F - 55.4 °F 82% 29.96 in 10.0 mi South 20.7 mph 27.6 mph N/A   Mostly Cloudy
6:58 AM 60.3 °F - 54.7 °F 82% 29.86 in 10.0 mi South 17.3 mph 26.5 mph N/A   Mostly Cloudy
7:58 AM 61.9 °F - 55.0 °F 78% 29.88 in 10.0 mi South 23.0 mph 29.9 mph N/A   Mostly Cloudy
8:58 AM 63.9 °F - 54.7 °F 72% 29.88 in 10.0 mi South 23.0 mph 36.8 mph N/A   Mostly Cloudy
9:18 AM 64.4 °F - 55.4 °F 73% 29.97 in 10.0 mi South 21.9 mph 31.1 mph N/A   Mostly Cloudy
9:25 AM 64.4 °F - 55.4 °F 73% 29.97 in 10.0 mi South 24.2 mph 31.1 mph N/A   Partly Cloudy
9:58 AM 66.2 °F - 54.7 °F 66% 29.90 in 10.0 mi South 24.2 mph 28.8 mph N/A   Partly Cloudy
10:58 AM 69.6 °F - 55.0 °F 60% 29.89 in 10.0 mi South 19.6 mph 32.2 mph N/A   Clear
11:58 AM 74.7 °F - 56.1 °F 52% 29.86 in 10.0 mi South 20.7 mph 28.8 mph N/A   Clear
12:58 PM 78.3 °F - 56.1 °F 46% 29.84 in 10.0 mi South 20.7 mph 29.9 mph N/A   Clear
1:58 PM 80.1 °F 80.2 °F 55.4 °F 43% 29.80 in 10.0 mi South 20.7 mph 27.6 mph N/A   Clear
2:58 PM 82.0 °F 81.4 °F 54.5 °F 39% 29.76 in 10.0 mi SSW 23.0 mph 29.9 mph N/A   Clear
3:58 PM 84.6 °F 83.1 °F 53.8 °F 35% 29.73 in 10.0 mi South 18.4 mph 25.3 mph N/A   Clear
4:58 PM 85.3 °F - 51.1 °F 31% 29.70 in 10.0 mi SSW 17.3 mph - N/A   Clear
5:58 PM 86.7 °F - 50.4 °F 28% 29.66 in 10.0 mi South 20.7 mph 24.2 mph N/A   Clear
6:58 PM 86.2 °F - 50.5 °F 29% 29.65 in 10.0 mi South 18.4 mph 25.3 mph N/A   Clear
7:58 PM 82.4 °F - 51.8 °F 35% 29.64 in 10.0 mi SSE 17.3 mph - N/A   Clear
8:58 PM 77.0 °F - 50.7 °F 40% 29.67 in 10.0 mi SSE 13.8 mph - N/A   Clear
9:58 PM 75.7 °F - 52.0 °F 43% 29.68 in 10.0 mi SSE 19.6 mph - N/A   Clear
10:58 PM 74.1 °F - 53.6 °F 49% 29.67 in 10.0 mi South 24.2 mph 28.8 mph N/A   Clear
11:58 PM 72.5 °F - 54.9 °F 54% 29.67 in 10.0 mi South 19.6 mph 27.6 mph N/A   Clear